Time,TemperatureF,DewpointF,PressureIn,WindDirection,WindDirectionDegrees,WindSpeedMPH,WindSpeedGustMPH,Humidity,HourlyPrecipIn,Conditions,Clouds,dailyrainin,SoftwareType,DateUTC
2013-06-01 00:01:00,48.0,38.0,30.18,NE,55,0.0,1.0,67,0.00,,,0.00,,2013-06-01 07:01:00,
2013-06-01 00:11:00,48.0,38.0,30.18,NE,55,0.0,1.0,67,0.00,,,0.00,,2013-06-01 07:11:00,
2013-06-01 00:21:00,47.0,37.0,30.18,NE,55,0.0,2.0,69,0.00,,,0.00,,2013-06-01 07:21:00,
2013-06-01 00:31:00,46.0,37.0,30.17,NE,55,0.0,1.0,71,0.00,,,0.00,,2013-06-01 07:31:00,
2013-06-01 00:42:00,45.0,38.0,30.17,NE,55,0.0,2.0,75,0.00,,,0.00,,2013-06-01 07:42:00,
2013-06-01 00:52:00,45.0,38.0,30.17,NE,55,0.0,2.0,75,0.00,,,0.00,,2013-06-01 07:52:00,
2013-06-01 01:02:00,44.0,37.0,30.16,NE,55,0.0,1.0,75,0.00,,,0.00,,2013-06-01 08:02:00,
2013-06-01 01:11:00,44.0,37.0,30.16,NE,55,0.0,1.0,75,0.00,,,0.00,,2013-06-01 08:11:00,
2013-06-01 01:21:00,44.0,38.0,30.17,NE,55,0.0,0.0,78,0.00,,,0.00,,2013-06-01 08:21:00,
2013-06-01 01:32:00,43.0,37.0,30.16,NE,55,0.0,1.0,78,0.00,,,0.00,,2013-06-01 08:32:00,
2013-06-01 01:42:00,42.0,36.0,30.16,NE,55,0.0,1.0,79,0.00,,,0.00,,2013-06-01 08:42:00,
2013-06-01 01:51:00,42.0,36.0,30.16,NE,55,0.0,1.0,79,0.00,,,0.00,,2013-06-01 08:51:00,
2013-06-01 02:01:00,42.0,36.0,30.16,NE,55,0.0,0.0,79,0.00,,,0.00,,2013-06-01 09:01:00,
2013-06-01 02:12:00,42.0,36.0,30.16,NE,55,0.0,0.0,79,0.00,,,0.00,,2013-06-01 09:12:00,
2013-06-01 02:21:00,41.0,35.0,30.16,NE,55,0.0,0.0,80,0.00,,,0.00,,2013-06-01 09:21:00,
2013-06-01 02:33:00,40.0,35.0,30.16,NE,55,0.0,0.0,82,0.00,,,0.00,,2013-06-01 09:33:00,
2013-06-01 02:42:00,40.0,35.0,30.16,NE,55,0.0,0.0,82,0.00,,,0.00,,2013-06-01 09:42:00,
2013-06-01 02:53:00,40.0,35.0,30.16,NE,55,0.0,1.0,83,0.00,,,0.00,,2013-06-01 09:53:00,
2013-06-01 03:02:00,39.0,35.0,30.15,NE,55,0.0,0.0,85,0.00,,,0.00,,2013-06-01 10:02:00,
2013-06-01 03:12:00,39.0,35.0,30.15,NE,55,0.0,0.0,85,0.00,,,0.00,,2013-06-01 10:12:00,
2013-06-01 03:22:00,38.0,34.0,30.15,NE,55,0.0,0.0,86,0.00,,,0.00,,2013-06-01 10:22:00,
2013-06-01 03:32:00,38.0,34.0,30.15,NE,55,0.0,0.0,87,0.00,,,0.00,,2013-06-01 10:32:00,
2013-06-01 03:42:00,38.0,34.0,30.15,NE,55,0.0,0.0,87,0.00,,,0.00,,2013-06-01 10:42:00,
2013-06-01 03:52:00,37.0,34.0,30.15,NE,55,0.0,0.0,87,0.00,,,0.00,,2013-06-01 10:52:00,
2013-06-01 04:02:00,37.0,34.0,30.15,NE,55,0.0,1.0,89,0.00,,,0.00,,2013-06-01 11:02:00,
2013-06-01 04:11:00,37.0,34.0,30.15,NE,55,0.0,1.0,89,0.00,,,0.00,,2013-06-01 11:11:00,
2013-06-01 04:21:00,36.0,34.0,30.15,NE,55,0.0,2.0,91,0.00,,,0.00,,2013-06-01 11:21:00,
2013-06-01 04:32:00,35.0,33.0,30.15,NE,55,0.0,1.0,92,0.00,,,0.00,,2013-06-01 11:32:00,
2013-06-01 04:42:00,35.0,33.0,30.15,NE,55,0.0,1.0,92,0.00,,,0.00,,2013-06-01 11:42:00,
2013-06-01 04:52:00,35.0,33.0,30.15,NE,55,0.0,2.0,92,0.00,,,0.00,,2013-06-01 11:52:00,
2013-06-01 05:01:00,34.0,32.0,30.15,NE,55,0.0,1.0,92,0.00,,,0.00,,2013-06-01 12:01:00,
2013-06-01 05:11:00,34.0,32.0,30.15,NE,55,0.0,1.0,92,0.00,,,0.00,,2013-06-01 12:11:00,
2013-06-01 05:21:00,34.0,32.0,30.15,NE,55,0.0,0.0,92,0.00,,,0.00,,2013-06-01 12:21:00,
2013-06-01 05:32:00,34.0,32.0,30.14,NE,55,0.0,0.0,93,0.00,,,0.00,,2013-06-01 12:32:00,
2013-06-01 05:41:00,34.0,32.0,30.14,NE,55,0.0,0.0,93,0.00,,,0.00,,2013-06-01 12:41:00,
2013-06-01 05:52:00,33.0,31.0,30.14,NE,55,0.0,2.0,93,0.00,,,0.00,,2013-06-01 12:52:00,
2013-06-01 06:01:00,33.0,31.0,30.14,NE,55,0.0,1.0,93,0.00,,,0.00,,2013-06-01 13:01:00,
2013-06-01 06:11:00,33.0,31.0,30.14,NE,55,0.0,1.0,93,0.00,,,0.00,,2013-06-01 13:11:00,
2013-06-01 06:22:00,33.0,31.0,30.14,NE,55,0.0,1.0,94,0.00,,,0.00,,2013-06-01 13:22:00,
2013-06-01 06:32:00,33.0,31.0,30.14,NE,55,0.0,2.0,94,0.00,,,0.00,,2013-06-01 13:32:00,
2013-06-01 06:42:00,33.0,31.0,30.14,NE,55,0.0,2.0,94,0.00,,,0.00,,2013-06-01 13:42:00,
2013-06-01 06:52:00,34.0,33.0,30.14,ENE,59,0.0,2.0,95,0.00,,,0.00,,2013-06-01 13:52:00,
2013-06-01 07:01:00,35.0,33.0,30.14,SSE,160,1.0,5.0,93,0.00,,,0.00,,2013-06-01 14:01:00,
2013-06-01 07:11:00,35.0,33.0,30.14,SSE,160,1.0,5.0,93,0.00,,,0.00,,2013-06-01 14:11:00,
2013-06-01 07:21:00,38.0,36.0,30.13,ESE,119,0.0,2.0,92,0.00,,,0.00,,2013-06-01 14:21:00,
2013-06-01 07:32:00,39.0,36.0,30.13,South,173,0.0,4.0,89,0.00,,,0.00,,2013-06-01 14:32:00,
2013-06-01 07:42:00,39.0,36.0,30.13,South,173,0.0,4.0,89,0.00,,,0.00,,2013-06-01 14:42:00,
2013-06-01 07:52:00,42.0,38.0,30.13,South,175,1.0,4.0,86,0.00,,,0.00,,2013-06-01 14:52:00,
2013-06-01 08:01:00,44.0,38.0,30.13,SSW,203,1.0,6.0,80,0.00,,,0.00,,2013-06-01 15:01:00,
2013-06-01 08:11:00,44.0,38.0,30.13,SSW,203,1.0,6.0,80,0.00,,,0.00,,2013-06-01 15:11:00,
2013-06-01 08:21:00,46.0,40.0,30.12,SSW,199,1.0,5.0,78,0.00,,,0.00,,2013-06-01 15:21:00,
2013-06-01 08:33:00,47.0,39.0,30.12,SW,214,3.0,6.0,75,0.00,,,0.00,,2013-06-01 15:33:00,
2013-06-01 08:43:00,47.0,39.0,30.12,SW,214,3.0,6.0,75,0.00,,,0.00,,2013-06-01 15:43:00,
2013-06-01 08:53:00,48.0,40.0,30.12,SSW,193,2.0,7.0,73,0.00,,,0.00,,2013-06-01 15:53:00,
2013-06-01 09:03:00,50.0,41.0,30.11,SSE,157,1.0,6.0,72,0.00,,,0.00,,2013-06-01 16:03:00,
2013-06-01 09:12:00,50.0,41.0,30.11,SSE,157,1.0,6.0,72,0.00,,,0.00,,2013-06-01 16:12:00,
2013-06-01 09:23:00,51.0,42.0,30.11,SSE,167,3.0,7.0,70,0.00,,,0.00,,2013-06-01 16:23:00,
2013-06-01 09:33:00,53.0,43.0,30.10,WSW,238,2.0,6.0,68,0.00,,,0.00,,2013-06-01 16:33:00,
2013-06-01 09:42:00,53.0,43.0,30.10,WSW,238,2.0,6.0,68,0.00,,,0.00,,2013-06-01 16:42:00,
2013-06-01 09:52:00,55.0,43.0,30.10,SSW,205,1.0,7.0,64,0.00,,,0.00,,2013-06-01 16:52:00,
2013-06-01 10:02:00,57.0,41.0,30.09,SSW,206,3.0,7.0,55,0.00,,,0.00,,2013-06-01 17:02:00,
2013-06-01 10:11:00,57.0,41.0,30.09,SSW,206,3.0,7.0,55,0.00,,,0.00,,2013-06-01 17:11:00,
2013-06-01 10:22:00,59.0,40.0,30.08,SSW,207,3.0,5.0,49,0.00,,,0.00,,2013-06-01 17:22:00,
2013-06-01 10:32:00,60.0,38.0,30.08,South,172,1.0,7.0,44,0.00,,,0.00,,2013-06-01 17:32:00,
2013-06-01 10:42:00,60.0,38.0,30.08,South,172,1.0,7.0,44,0.00,,,0.00,,2013-06-01 17:42:00,
2013-06-01 10:52:00,61.0,36.0,30.07,SSE,162,2.0,7.0,40,0.00,,,0.00,,2013-06-01 17:52:00,
2013-06-01 11:01:00,65.0,34.0,30.06,East,91,1.0,5.0,32,0.00,,,0.00,,2013-06-01 18:01:00,
2013-06-01 11:11:00,65.0,34.0,30.06,East,91,1.0,5.0,32,0.00,,,0.00,,2013-06-01 18:11:00,
2013-06-01 11:21:00,66.0,34.0,30.06,NE,43,2.0,7.0,30,0.00,,,0.00,,2013-06-01 18:21:00,
2013-06-01 11:32:00,68.0,35.0,30.06,ENE,78,1.0,4.0,30,0.00,,,0.00,,2013-06-01 18:32:00,
2013-06-01 11:41:00,68.0,35.0,30.06,ENE,78,1.0,4.0,30,0.00,,,0.00,,2013-06-01 18:41:00,
2013-06-01 11:51:00,68.0,36.0,30.04,WNW,294,2.0,5.0,31,0.00,,,0.00,,2013-06-01 18:51:00,
2013-06-01 12:01:00,69.0,37.0,30.04,East,101,2.0,7.0,31,0.00,,,0.00,,2013-06-01 19:01:00,
2013-06-01 12:11:00,69.0,37.0,30.04,East,101,2.0,7.0,31,0.00,,,0.00,,2013-06-01 19:11:00,
2013-06-01 12:21:00,70.0,36.0,30.03,East,101,2.0,6.0,29,0.00,,,0.00,,2013-06-01 19:21:00,
2013-06-01 12:32:00,69.0,35.0,30.02,South,190,0.0,4.0,29,0.00,,,0.00,,2013-06-01 19:32:00,
2013-06-01 12:41:00,69.0,35.0,30.02,South,190,0.0,4.0,29,0.00,,,0.00,,2013-06-01 19:41:00,
2013-06-01 12:52:00,69.0,35.0,30.02,East,90,7.0,11.0,29,0.00,,,0.00,,2013-06-01 19:52:00,
2013-06-01 13:01:00,69.0,33.0,30.01,SSE,162,2.0,8.0,26,0.00,,,0.00,,2013-06-01 20:01:00,
2013-06-01 13:11:00,69.0,33.0,30.01,SSE,162,2.0,8.0,26,0.00,,,0.00,,2013-06-01 20:11:00,
2013-06-01 13:21:00,68.0,34.0,30.00,SSE,155,7.0,12.0,28,0.00,,,0.00,,2013-06-01 20:21:00,
2013-06-01 13:32:00,69.0,34.0,29.99,South,186,6.0,10.0,27,0.00,,,0.00,,2013-06-01 20:32:00,
2013-06-01 13:41:00,69.0,34.0,29.99,South,186,6.0,10.0,27,0.00,,,0.00,,2013-06-01 20:41:00,
2013-06-01 13:52:00,71.0,35.0,29.98,SSE,159,2.0,11.0,27,0.00,,,0.00,,2013-06-01 20:52:00,
2013-06-01 14:01:00,70.0,34.0,29.98,South,188,5.0,13.0,27,0.00,,,0.00,,2013-06-01 21:01:00,
2013-06-01 14:11:00,72.0,37.0,29.97,ENE,74,4.0,11.0,28,0.00,,,0.00,,2013-06-01 21:11:00,
2013-06-01 14:21:00,72.0,37.0,29.97,ENE,74,4.0,11.0,28,0.00,,,0.00,,2013-06-01 21:21:00,
2013-06-01 14:33:00,70.0,34.0,29.96,SSE,163,6.0,14.0,27,0.00,,,0.00,,2013-06-01 21:33:00,
2013-06-01 14:42:00,70.0,34.0,29.96,SSE,163,6.0,14.0,27,0.00,,,0.00,,2013-06-01 21:42:00,
2013-06-01 14:53:00,72.0,35.0,29.96,SSW,196,5.0,14.0,26,0.00,,,0.00,,2013-06-01 21:53:00,
2013-06-01 15:03:00,72.0,37.0,29.96,West,265,5.0,14.0,28,0.00,,,0.00,,2013-06-01 22:03:00,
2013-06-01 15:12:00,72.0,37.0,29.96,West,265,5.0,14.0,28,0.00,,,0.00,,2013-06-01 22:12:00,
2013-06-01 15:23:00,74.0,39.0,29.96,WNW,285,6.0,12.0,28,0.00,,,0.00,,2013-06-01 22:23:00,
2013-06-01 15:33:00,75.0,39.0,29.95,WNW,299,5.0,9.0,27,0.00,,,0.00,,2013-06-01 22:33:00,
2013-06-01 15:42:00,75.0,39.0,29.95,WNW,299,5.0,9.0,27,0.00,,,0.00,,2013-06-01 22:42:00,
2013-06-01 15:53:00,75.0,38.0,29.94,NW,311,7.0,11.0,26,0.00,,,0.00,,2013-06-01 22:53:00,
2013-06-01 16:02:00,74.0,38.0,29.93,NW,306,5.0,11.0,27,0.00,,,0.00,,2013-06-01 23:02:00,
2013-06-01 16:11:00,74.0,38.0,29.93,NW,306,5.0,11.0,27,0.00,,,0.00,,2013-06-01 23:11:00,
2013-06-01 16:21:00,75.0,38.0,29.93,WNW,295,5.0,11.0,26,0.00,,,0.00,,2013-06-01 23:21:00,
2013-06-01 16:32:00,73.0,37.0,29.93,NW,319,5.0,13.0,27,0.00,,,0.00,,2013-06-01 23:32:00,
2013-06-01 16:42:00,73.0,37.0,29.93,NW,319,5.0,13.0,27,0.00,,,0.00,,2013-06-01 23:42:00,
2013-06-01 16:52:00,73.0,40.0,29.93,WNW,283,6.0,12.0,30,0.00,,,0.00,,2013-06-01 23:52:00,
2013-06-01 17:02:00,72.0,39.0,29.92,WNW,283,6.0,13.0,30,0.00,,,0.00,,2013-06-02 00:02:00,
2013-06-01 17:11:00,72.0,39.0,29.92,WNW,283,6.0,13.0,30,0.00,,,0.00,,2013-06-02 00:11:00,
2013-06-01 17:21:00,73.0,40.0,29.92,WNW,283,5.0,10.0,30,0.00,,,0.00,,2013-06-02 00:21:00,
2013-06-01 17:32:00,73.0,40.0,29.92,WSW,246,5.0,12.0,30,0.00,,,0.00,,2013-06-02 00:32:00,
2013-06-01 17:41:00,73.0,40.0,29.92,WSW,246,5.0,12.0,30,0.00,,,0.00,,2013-06-02 00:41:00,
2013-06-01 17:51:00,72.0,40.0,29.92,WNW,287,6.0,13.0,31,0.00,,,0.00,,2013-06-02 00:51:00,
2013-06-01 18:01:00,71.0,40.0,29.92,WSW,251,5.0,17.0,32,0.00,,,0.00,,2013-06-02 01:01:00,
2013-06-01 18:11:00,71.0,40.0,29.92,WSW,251,5.0,17.0,32,0.00,,,0.00,,2013-06-02 01:11:00,
2013-06-01 18:21:00,70.0,40.0,29.91,WNW,288,6.0,16.0,33,0.00,,,0.00,,2013-06-02 01:21:00,
2013-06-01 18:32:00,70.0,40.0,29.91,NW,317,5.0,13.0,34,0.00,,,0.00,,2013-06-02 01:32:00,
2013-06-01 18:41:00,70.0,40.0,29.91,NW,317,5.0,13.0,34,0.00,,,0.00,,2013-06-02 01:41:00,
2013-06-01 18:52:00,69.0,41.0,29.91,West,261,6.0,15.0,36,0.00,,,0.00,,2013-06-02 01:52:00,
2013-06-01 19:01:00,68.0,41.0,29.91,WNW,299,7.0,15.0,37,0.00,,,0.00,,2013-06-02 02:01:00,
2013-06-01 19:12:00,68.0,41.0,29.91,WNW,299,7.0,15.0,37,0.00,,,0.00,,2013-06-02 02:12:00,
2013-06-01 19:21:00,67.0,41.0,29.91,WSW,253,6.0,17.0,39,0.00,,,0.00,,2013-06-02 02:21:00,
2013-06-01 19:32:00,66.0,42.0,29.91,WNW,292,6.0,14.0,41,0.00,,,0.00,,2013-06-02 02:32:00,
2013-06-01 19:41:00,66.0,42.0,29.91,WNW,292,6.0,14.0,41,0.00,,,0.00,,2013-06-02 02:41:00,
2013-06-01 19:51:00,66.0,43.0,29.91,North,5,3.0,9.0,43,0.00,,,0.00,,2013-06-02 02:51:00,
2013-06-01 20:02:00,65.0,43.0,29.91,NW,325,5.0,11.0,44,0.00,,,0.00,,2013-06-02 03:02:00,
2013-06-01 20:11:00,65.0,43.0,29.91,NW,325,5.0,11.0,44,0.00,,,0.00,,2013-06-02 03:11:00,
2013-06-01 20:21:00,64.0,42.0,29.91,WNW,283,4.0,14.0,45,0.00,,,0.00,,2013-06-02 03:21:00,
2013-06-01 20:33:00,63.0,42.0,29.91,NW,320,0.0,8.0,46,0.00,,,0.00,,2013-06-02 03:33:00,
2013-06-01 20:43:00,63.0,42.0,29.91,NW,320,0.0,8.0,46,0.00,,,0.00,,2013-06-02 03:43:00,
2013-06-01 20:52:00,62.0,42.0,29.91,North,355,1.0,4.0,47,0.00,,,0.00,,2013-06-02 03:52:00,
2013-06-01 21:02:00,60.0,42.0,29.92,West,269,0.0,3.0,52,0.00,,,0.00,,2013-06-02 04:02:00,
2013-06-01 21:12:00,60.0,42.0,29.92,West,269,0.0,3.0,52,0.00,,,0.00,,2013-06-02 04:12:00,
2013-06-01 21:23:00,59.0,42.0,29.92,West,265,0.0,4.0,54,0.00,,,0.00,,2013-06-02 04:23:00,
2013-06-01 21:33:00,58.0,42.0,29.92,West,265,2.0,3.0,56,0.00,,,0.00,,2013-06-02 04:33:00,
2013-06-01 21:42:00,58.0,42.0,29.92,West,265,2.0,3.0,56,0.00,,,0.00,,2013-06-02 04:42:00,
2013-06-01 21:52:00,57.0,43.0,29.93,ENE,60,1.0,4.0,59,0.00,,,0.00,,2013-06-02 04:52:00,
2013-06-01 22:02:00,56.0,42.0,29.93,ENE,60,0.0,2.0,60,0.00,,,0.00,,2013-06-02 05:02:00,
2013-06-01 22:11:00,56.0,42.0,29.93,ENE,60,0.0,2.0,60,0.00,,,0.00,,2013-06-02 05:11:00,
2013-06-01 22:22:00,54.0,43.0,29.93,ENE,60,0.0,1.0,67,0.00,,,0.00,,2013-06-02 05:22:00,
2013-06-01 22:32:00,54.0,43.0,29.93,ENE,60,0.0,2.0,66,0.00,,,0.00,,2013-06-02 05:32:00,
2013-06-01 22:42:00,54.0,43.0,29.93,ENE,60,0.0,2.0,66,0.00,,,0.00,,2013-06-02 05:42:00,
2013-06-01 22:52:00,52.0,42.0,29.93,NW,322,0.0,2.0,69,0.00,,,0.00,,2013-06-02 05:52:00,
2013-06-01 23:01:00,51.0,42.0,29.93,NW,322,0.0,0.0,71,0.00,,,0.00,,2013-06-02 06:01:00,
2013-06-01 23:12:00,51.0,42.0,29.93,NW,322,0.0,0.0,71,0.00,,,0.00,,2013-06-02 06:12:00,
2013-06-01 23:21:00,50.0,42.0,29.93,NW,322,0.0,0.0,73,0.00,,,0.00,,2013-06-02 06:21:00,
2013-06-01 23:31:00,50.0,42.0,29.93,NW,322,0.0,1.0,74,0.00,,,0.00,,2013-06-02 06:31:00,
2013-06-01 23:41:00,50.0,42.0,29.93,NW,322,0.0,1.0,74,0.00,,,0.00,,2013-06-02 06:41:00,
2013-06-01 23:52:00,49.0,41.0,29.93,NW,322,0.0,1.0,75,0.00,,,0.00,,2013-06-02 06:52:00,